Regional Weather Roundup
Issued by NWS Sterling, VA

Home | Current Version | Previous Version | Graphics & Text | Print | Product List | Glossary On
Versions: 1 2 3 4 5 6 7 8 9 10 11 12 13 14 15 16 17 18 19 20 21 22 23 24 25 26 27
000
ASUS41 KLWX 180311
RWRLWX

REGIONAL WEATHER ROUNDUP
NATIONAL WEATHER SERVICE BALTIMORE MD/WASHINGTON DC
1100 PM EDT THU AUG 17 2017

Note: "FAIR" indicates few or no clouds below 12,000 feet
with no significant weather and/or obstructions to visibility.
 TC=TEMPERATURE CELSIUS

 * =Non NWS site. Station does not report precipitation (e.g. rain,
    snow, etc.), thunder, or fog.

DCZ001-MDZ009-015-VAZ040>042-051-053>054-180400-
WASHINGTON METRO

CITY           SKY/WX    TMP DP  RH WIND       PRES   REMARKS
WASHINGTON NAT CLOUDY    81  75  82 S9        29.94F
DULLES         CLOUDY    79  74  84 S8        29.94S
ANDREWS AFB    CLOUDY    75  71  88 S7        29.94F
FT BELVOIR     PTCLDY    77  73  86 SE3       29.93F
QUANTICO       CLOUDY    81  77  88 S7        29.94F
COLLEGE PARK*  CLOUDY    76  74  91 CALM      29.94F
LEESBURG*      CLOUDY    81  75  83 SW6       29.95S
MANASSAS*      CLOUDY    77  73  87 S5        29.94F
GAITHERSBURG*  PTCLDY    79  72  79 S8        29.96F

$$

MDZ006>007-011-014-180400-
BALTIMORE METRO

CITY           SKY/WX    TMP DP  RH WIND       PRES   REMARKS
BWI AIRPORT    MOCLDY    77  74  90 SE5       29.94F
MD SCIENCE CTR   N/A     81  73  76 MISG      29.95S
MARTIN STATE   PTCLDY    79  75  89 S8        29.96S
ANNAPOLIS      PTCLDY    79  77  94 S7        29.94F
FORT MEADE*    PTCLDY    72  72 100 CALM      29.97F

$$

MDZ012-015-019>023-180400-
MARYLAND EASTERN SHORE

CITY           SKY/WX    TMP DP  RH WIND       PRES   REMARKS
OCEAN CITY     CLEAR     77  75  93 S6        29.99F
SALISBURY      CLEAR     74  72  93 SE6       29.98S
BAY BRIDGE AP* CLEAR     79  72  78 S9        29.95S
CAMBRIDGE*     CLEAR     73  72  94 SE6       29.96F
EASTON*        CLEAR     77  71  80 S6        30.00

$$

MDZ017>025-180400-
SOUTHERN MARYLAND

CITY           SKY/WX    TMP DP  RH WIND       PRES   REMARKS
PATUXENT RIVER PTCLDY    76  72  87 S5        29.95F
ST INIGOES     CLEAR     79  74  84 SE7       29.95S
LEONARDTOWN*   CLEAR     75  70  83 CALM      29.97F

$$

MDZ003>005-180400-
NORTH CENTRAL MARYLAND

CITY           SKY/WX    TMP DP  RH WIND       PRES   REMARKS
FREDERICK*     PTCLDY    79  77  94 S5        29.96F
HAGERSTOWN APT LGT RAIN  81  75  82 S13       29.93S
WESTMINSTER*   CLOUDY    77  75  94 S8        29.96F

$$

MDZ501>502-180400-
WESTERN MARYLAND

CITY           SKY/WX    TMP DP  RH WIND       PRES   REMARKS
OAKLAND*       MOCLDY    70  66  88 SW6       30.01S
CUMBERLAND*    PTCLDY    77  77 100 CALM      29.95F

$$

VAZ025>031-180400-
SHENANDOAH VALLEY

CITY           SKY/WX    TMP DP  RH WIND       PRES   REMARKS
WINCHESTER*    CLOUDY    73  72  94 S7        29.94S THUNDER
FRONT ROYAL*   CLOUDY    77  75  94 SE3       29.93F
LURAY*         CLOUDY    79  73  83 CALM      29.95F
NEW MARKET*    CLOUDY    78  72  82 SW6       29.94F
STAUNTON*      MOCLDY    73  72  95 CALM      29.99F
WAYNESBORO*    PTCLDY    74  74 100 SE6       30.00S

$$

WVZ021-048>050-054>055-180400-
EASTERN WEST VIRGINIA PANHANDLE

CITY           SKY/WX    TMP DP  RH WIND       PRES   REMARKS
MARTINSBURG    CLOUDY    78  73  84 CALM      29.92S
PETERSBURG*    PTCLDY    77  75  92 SE3       29.93F

$$

VAZ036>039-050-180400-
CENTRAL FOOTHILLS

CITY           SKY/WX    TMP DP  RH WIND       PRES   REMARKS
CHARLOTTESVILL PTCLDY    78  76  93 CALM      29.95F
CULPEPER*      CLOUDY    79  76  90 CALM      29.95S
ORANGE*        CLOUDY    77  73  88 CALM      29.95S
GORDONSVILLE*  CLOUDY    77  77 100 CALM      29.95S
WARRENTON*     CLOUDY    78  72  80 CALM      29.94S

$$

VAZ055>057-180400-
NORTH AND CENTRAL PIEDMONT

CITY           SKY/WX    TMP DP  RH WIND       PRES   REMARKS
FREDERICKSBRG* CLOUDY    79  74  85 CALM      29.93S
STAFFORD*      CLOUDY    77  75  96 CALM      29.98S

$$

NCZ024-NYZ072-PAZ021-071-VAZ022-071-180400-
OTHER REGIONAL OBSERVATIONS

CITY           SKY/WX    TMP DP  RH WIND       PRES   REMARKS
NEW YORK CITY  MOCLDY    75  70  84 CALM      30.02R
PHILADELPHIA   PTCLDY    77  71  82 S7        29.97R
PITTSBURGH     MOCLDY    74  71  91 S6        29.88F
ROANOKE        CLEAR     75  74  96 CALM      30.00S
RICHMOND       PTCLDY    78  74  87 SE6       29.94F
RALEIGH        PTCLDY    77  74  90 S7        29.99S

$$

ANZ530>537-180400-
MARINE OBSERVATIONS

STATION/POSITION TIME  TEMP    WIND        PRES
                       AIR SEA DIR/SP/G
                 (UTC) (F)     (DEG/KT/KT) (MB)
THOMAS PT LIGHT  0300   80 80  180/ 16/ 18   N/A
BALT KEY BRIDGE  0248   80     170/ 10/ 12 1013.7S
COVE POINT       0248   80     190/ 10/ 13 1014.9F
LEWISETTA        0248   79 84  190/  9/ 11 1014.1F
SOLOMONS ISLAND  0248   79 81  140/  5/  7   N/A
PINEY POINT      0248          180/  9/ 10   N/A

$$





USA.gov is the U.S. government's official web portal to all federal, state and local government web resources and services.